Volver al catálogo

COSMOS 2251 DEB

ActivoLEO
NORAD 33760·DEBRIS·🇷🇺 Russia

Lanzado Jun 16, 1993 desde Plesetsk Cosmodrome

Loading…

Próximos Pases (próximas 24 horas)

TLE

ActualizadoSource: Space-Track

Época: Sep 14, 2026, 03:45 UTC

1 33760U 93036H   26257.15649109  .00000148  00000-0  60069-4 0  9995
2 33760  74.0315 135.9298 0020393 173.9135 344.7663 14.35811747920773

Sigue COSMOS 2251 DEB en tiempo real con AllMySat

Download on the App Store